STARLINK-34690, 64863

Orbit data source: Space-Track

STARLINK-34690, 64863 is a payload satellite owned by SpaceX/Seattle (US) in SSO that was launched on Sat, 19 Jul 2025 UTC via an FALCON 9 launch vehicle from the Air Force Western Test Range (AFWTR). Payload-class satellites include a variety of spacecraft equipped with specific instruments for various scientific and technological missions. These include communications satellites like Starlink; space stations such as the ISS; scientific satellites like the Hubble; Earth observation satellites from companies like Planet Labs, Umbra, and HawkEye 360; GPS; miniature CubeSats for education and research; and military/defense satellites.

Loading next visibility...
Identifier
64863, 2025-152X
Orbit
SSO
Country
Flag of USUS
Related business
Manufacturer
SpaceX/Seattle
Mission
Operational Commercial Communications
Bus & Motor
STARLINK V2MO, Unknown motor
Mass
575 kg wet, ~530 kg dry
Launch date (UTC)
2025-07-19 (9 months ago)
Launch vehicle
FALCON 9
Launch site
Air Force Western Test Range (AFWTR)
Object type
Payload
Rocket body
Debris
Shape & HBR
Box + 2 Pan, 17.7 m
Radar Cross Section
36.964 m², Large (>1 m²)

Expand to show TLE details & history
Last TLE update: 19 hours ago

TLE from 19 hours ago
0 STARLINK-34690
1 64863U 25152X   26094.55873931  .00005555  00000-0  38878-3 0  9991
2 64863  97.6022 311.0670 0002501  95.5331 264.6181 15.05657922 39313
Epoch: 2026-04-04T13:24Z
TLE epoch observation values (Epoch: 2026-04-04T13:24:35.076Z)
Latitude
-0.00003°
Longitude
-82.95593°
Altitude
552.715 km
Speed
7.585 km/s
True Right ascension
20h 44m 16s
True Declination
0° 00' 00"
Sunlit
Object was in daylight at epoch
Visualization orbit readout
Latitude
Unknown
Longitude
Unknown
Altitude
Unknown
Speed
Unknown
Apparent Right ascension
Unknown
Apparent Declination
Unknown
Sunlit
N/A
Visualization observer readout
Local Sidereal Time
14:30:51
Azimuth
Unknown
Elevation
Unknown
Doppler factor
Unknown
Orbital elements
Apogee altitude
548.212 km
Perigee altitude
544.748 km
Semi-major axis
6,924.617 km
Eccentricity
0.00025
Inclination
97.6022°
RAAN
311.067°
Arg. of periapsis
95.5331°
True anomaly
264.58957°
Mean anomaly
264.6181°
Eccentric anomaly
264.60383°
Mean motion
3.7666 °/min
Orbital period
95.58 mins
BSTAR
0.00038878
Loading maneuver chart data...
Computing Atmospheric mass density...
Loading historical data...
Loading historical data...
Loading historical data...
Loading historical data...
Loading historical data...
Loading historical data...
Loading historical data...

Documentation

Showing up to 5 results
|